Погода Уля

Погода Уля : погода сейчас, прогноз погоды и архив. Всё, что Вы хотите узнать о погоде Уля!

Поиск расширенной информации на нашем сайте:

Другие новости

Новости СМИ2

Главная страница сайта

Новости сайта

03.07.2017

Напоминаем, что на нашем специализированном сайте Метеоцентр.Азия вы можете получить высокодетализированные автоматические прогнозы погоды по пунктам России, СНГ и мира в авиационном формате (включающие направление и скорость ветра, видимость, явления погоды, количество и форму облачности, нижнюю и верхнюю границу облачности).


Погода Уля - сегодня

Время (UTC), дата Ветер
(°,м/с) 
Видим.   Явления Облачность Т
(°С)
Тd
(°С)
f(%) Тe
(°С)
Pmin
(гПа)
dP
(гПа)
Po
(мм)
O2
(г/м3)
Тmin Tmax R s Состояние
почвы
09 13.02.18 340 (С) 10-12{12}  20000 м  позёмок  5/0 верхняя 
[Cc]
-14.4 -25.1 40 -23  987.1  0.4  740  316    -13.6       
21 13.02.18 340 (С) 10-12{12}  20000 м  позёмок  4/0 верхняя 
[Cc]
-16.6 -25.8 45 -25  988.5  -0.1  741  320  -17.2      51  равномерный
мокрый или
старый снег
100% 
09 14.02.18 340 (С) 14-16{16}  20000 м  позёмок  8/0 средняя 
[Ac As]
-13.4 -23.7 42 -23  990.6  1.6  742  316    -12.7       
21 14.02.18 340 (С) 10-12{14}  10 км  позёмок  10/0 средняя 
[Ac As]
-15.2 -20.3 65 -24  995.4  0.6  746  320  -15.7    0.2  51  равномерный
мокрый или
старый снег
100% 
12 15.02.18 320 (СЗ) 20000 м    8/0 средняя 
[Ac As]
-13.5 -22.9 45 -20  999.5  1.2  749  319           
21 15.02.18 340 (С) 10-12{12}  20000 м  позёмок  8/0 средняя 
[Ac As]
-16.1 -25.3 45 -25  1002.9  1.1  752  324  -16.7      50  равномерный
мокрый или
старый снег
100% 
03 16.02.18 320 (СЗ) 20000 м    8/0 верхняя 
[Ci fib]
-14.8 -25.4 40 -21  1004.4  0.7  753  322           
06 16.02.18 320 (СЗ) 20000 м    5/0 верхняя 
[Ci fib]
-14 -24.7 40 -20  1004.7  0.3  753  321           
12 16.02.18 340 (С) 20000 м    8/0 верхняя 
[Cc]
-16.8 -26 45 -25  1005.9  0.2  754  325           
15 16.02.18 290 (З) 20000 м    8/0 верхняя 
[Cc]
-17.6 -26.7 45 -26  1005.6  -0.3  754  326           
18 16.02.18 290 (З) 20000 м    8/0 верхняя 
[Cc]
-18.2 -26.1 50 -26  1005.6  754  327           
21 16.02.18 340 (С) 9-10{10}  20000 м    8/0 верхняя 
[Cc]
-18.6 -27.6 45 -27  1005.4  -0.2  754  328  -19      50  равномерный
мокрый или
старый снег
100% 
09 17.02.18 340 (С) 12-14{14}  20000 м    3/0 верхняя 
[Ci fib]
-17.4 -27.8 40 -27  1006.7  0.9  755  326    -16.1       
12 17.02.18 340 (С) 10-12{14}  20000 м    ясно 
-18.1 -28.6 39 -27  1007.5  0.8  755  328           
15 17.02.18 340 (С) 10-12{12}  20000 м    ясно 
-19.2 -28.2 45 -29  1007.8  0.3  755  329           
18 17.02.18 290 (З) 10-12{12}  20000 м    ясно 
-19.4 -28.4 45 -29  1008.5  0.7  756  330           
21 17.02.18 290 (З) 9-10{12}  20000 м    1/0 верхняя 
[Ci fib]
-19.7 -29.9 40 -29  1009  0.5  756  330  -20.2      50  равномерный
мокрый или
старый снег
100% 
03 18.02.18 320 (СЗ) 20000 м    5/0 верхняя 
[Ci fib]
-16.2 -26.7 40 -23  1008.3  -0.8  756  325           
06 18.02.18 290 (З) 20000 м    5/0 верхняя 
[Ci fib]
-15.2 -25.8 40 -23  1007.4  -0.9  755  324           
09 18.02.18 290 (З) 9-10{10}  20000 м    8/0 верхняя 
[Ci fib]
-16.8 -27.2 40 -25  1007.3  -0.1  755  326    -14.9       
12 18.02.18 340 (С) 8{10}  20000 м    8/0 верхняя 
[Ci fib]
-17.4 -27.8 40 -25  1007.1  -0.2  755  327           
21 18.02.18 340 (С) 12-14{14}  20000 м    6/0 верхняя 
[Ci fib]
-19.3 -28.3 45 -30  1004.9  -0.2  753  328  -19.8      50  равномерный
мокрый или
старый снег
100% 
09 19.02.18 290 (З) 10-12{12}  20000 м    8/0 верхняя 
[Ci fib]
-16.9 -27.3 40 -26  1003.5  0.2  752  325    -14.8       
21 19.02.18 340 (С) 12-14{14}  20000 м    6/0 верхняя 
[Ci fib]
-20.7 -29.6 45 -31  1001.4  -0.4  751  329  -21.2      50  равномерный
мокрый или
старый снег
100% 
15 20.02.18 340 (С) 8{10}  20000 м    10/0 средняя 
[Ac As]
-18.6 -24.5 60 -27  1003.5  0.4  752  327           
Время (UTC), дата Ветер
(°,м/с) 
Видим.   Явления Облачность Т
(°С)
Тd
(°С)
f(%) Тe
(°С)
Pmin
(гПа)
dP
(гПа)
Po
(мм)
O2
(г/м3)
Тmin Tmax R s Состояние
почвы

Для получения пояснительной информации подведите курсор к названию столбца.

ПОГОДА Уля - архив

Всё, что Вы хотите узнать о погоде Уля - удобно и подробно!

Выберите нужную дату (начиная с 1 января 2015* года) и нажмите кнопку "Найти".
Будут отображены архивные сводки погоды по пункту Уля, начиная с указанной даты.


Отображать данные в формате CSV (для использования в таблицах Excel)


Внимание! Наш архив погоды предназначен исключительно для личного некоммерческого использования в познавательных целях. Если Вам необходимы официальные справки о состоянии погоды (для производственных, юридических, коммерческих и т.п. целей), обращайтесь в органы Росгидромета.

*Примечание: данная дата относится к архиву по метеостанциям СССР (Россия, СНГ, Балтия).
Архив по метеостанциям Зарубежной Европы и Азии (кроме Китая) хранится 10 дней, по другим регионам земного шара (Китай, Африка, Америка, Австралия, Океания) - 1 день.

Уля - район местоположения метеостанции


Название, широта, долгота, высота метеостанции:
Уля 58.8°ш. 141.7°д. 4 м над ур. моря [Российская Федерация]

Дополнительная информация

В oтличие oт бoльшинства пoгoдных сайтoв мы публикуем пoдрoбную метеoинфoрмацию в детальнoм прoфессиoнальнoм фoрмате.

Характеристики температуры и влажнoсти вoздуха измеряются на высoте 2 м в тени вдали oт зданий и деревьев.
Скoрoсть ветра измеряется на высoте 10 м (на урoвне рoста челoвека скoрoсть ветра ниже в 1.5-2 раза). Если метеoстанция нахoдится в гoрoде или в лесу, тo скoрoсть ветра занижена на 2-4 м/с пo сравнению с oткрытым местoм. Скoрoсть ветра над акватoриями крупных рек и oзёр, а также на вершинах хoлмoв на 2-5 м/с выше, чем в oбычных услoвиях.
Атмoсфернoе давление в разных тoчках местнoсти мoжет значительнo oтличаться oт давления на метеoстанции, в зависимoсти oт услoвий рельефа (при пoдъёме на 10 м давление пoнижается примернo на 1 мм рт.ст.).